Regional Weather Roundup
Issued by NWS

Home | Current Version | Previous Version | Text Only | Print | Product List | Glossary On
Versions: 1 2 3 4 5 6 7 8 9 10 11 12 13 14 15 16 17 18 19 20 21 22 23 24 25 26 27 28 29 30 31 32 33 34 35 36 37 38 39 40 41 42 43 44 45 46 47 48 49 50
000
ASUS43 KLSX 280959
RWRMO

WEATHER SUMMARY FOR MISSOURI
NATIONAL WEATHER SERVICE SPRINGFIELD MO
500 AM CDT SAT MAR 28 2015

NOTE: "FAIR" INDICATES FEW OR NO CLOUDS BELOW 12,000 FEET WITH NO
       SIGNIFICANT WEATHER AND/OR OBSTRUCTIONS TO VISIBILITY.
       CURRENT SKY AND/OR WEATHER CONDITIONS ARE NOT AVAILABLE FOR
       CHILLICOTHE AND FARMINGTON.

MOZ001>031-035>038-043-044-053-054-281100-
...NORTHERN AND WESTERN MISSOURI...

CITY           SKY/WX    TMP DP  RH WIND       PRES   REMARKS
KANSAS CTY INT CLOUDY    37  25  61 E10       30.10S WCI  30
KANSAS C DTWN  CLOUDY    40  23  50 E9        30.11R
LEE`S SUMMIT   CLOUDY    38  24  57 E7        30.12R
ST JOSEPH      CLOUDY    36  27  69 E8        30.12S WCI  30
CHILLICOTHE      N/A     37  26  64 E3        30.16R
KIRKSVILLE     CLOUDY    29  19  66 E6        30.18R WCI  23

$$
MOZ066>068-077>081-088>096-101>105-281100-
...SOUTHWEST MISSOURI...

CITY           SKY/WX    TMP DP  RH WIND       PRES   REMARKS
SPRINGFIELD    CLOUDY    39  24  55 SE8       30.09S
JOPLIN         CLOUDY    41  27  57 SE5       30.09R

$$
MOZ032>034-039>042-045>050-055>058-069>072-281100-
...CENTRAL MISSOURI...

CITY           SKY/WX    TMP DP  RH WIND       PRES   REMARKS
COLUMBIA       CLOUDY    33  23  66 E7        30.15R WCI  27
JEFFERSON CITY CLOUDY    35  24  64 E9        30.17R WCI  28
ROLLA          CLOUDY    31  24  75 E9        30.13R WCI  23
SEDALIA        FLURRIES  35  30  82 E6        30.14R
OSAGE BEACH    CLOUDY    36  25  64 S5        30.15R

$$
MOZ051-052-059>065-281100-
...EAST CENTRAL MISSOURI...

CITY           SKY/WX    TMP DP  RH WIND       PRES   REMARKS
ST LOUIS INTL  MOCLDY    30  19  63 E5        30.21R WCI  25
SPIRIT OF STL  PTCLDY    27  21  78 CALM      30.21R
ST CHARLES     PTCLDY    29  23  78 CALM      30.21R

$$
MOZ072>076-082>087-097>100-106>115-281100-
...SOUTH CENTRAL AND SOUTHEAST MISSOURI...

CITY           SKY/WX    TMP DP  RH WIND       PRES   REMARKS
CAPE GIRARDEAU PTCLDY    30  22  72 E3        30.20R
FARMINGTON     MOCLDY    27  21  80 E3        30.20R
POPLAR BLUFF   PTCLDY    31  28  89 CALM      30.18S
WEST PLAINS    CLOUDY    35  21  56 SE5       30.14R

$$


USA.gov is the U.S. government's official web portal to all federal, state and local government web resources and services.